Temp
-20 -20 -20 -20 -20 -19 -19 -19 -19 -19 -19 -19 -19 -19 -19 -19 -19 -18 -17 -16 -16 -15 -16 -16 -15 -15 -15 -15 -14 -14 -14 -14 -14 -14 -14 -13 -12 -11 -10 -10 -9 -10 -10 -10 -10 -10 -9 -9 -9 -9 -8 -8 -8 -8 -7 -7 -7 -6 -6 -6 -5 -5 -6 -5 -5 -4 -4 -3 -3 -3 -3 -3 -2 -3
-21 -21 -21 -21 -21 -21 -21 -21 -20 -20 -20 -20 -20 -20 -20 -20 -20 -20 -19 -18 -17 -16 -17 -17 -16 -16 -16 -16 -15 -15 -15 -15 -15 -15 -15 -14 -13 -12 -12 -11 -11 -10 -11 -11 -11 -11 -10 -10 -10 -10 -9 -9 -10 -10 -9 -9 -8 -8 -7 -7 -6 -6 -5 -5 -5 -5 -4 -4 -3 -4 -4 -3 -3 -3
-22 -22 -22 -21 -21 -21 -21 -21 -21 -21 -22 -22 -21 -21 -21 -21 -21 -21 -21 -20 -18 -18 -19 -18 -18 -18 -17 -17 -17 -16 -15 -15 -15 -15 -16 -15 -15 -14 -13 -12 -12 -11 -11 -12 -12 -11 -11 -11 -11 -11 -10 -10 -11 -11 -11 -11 -10 -10 -9 -9 -8 -6 -5 -5 -5 -5 -5 -4 -4 -4 -4 -4 -4 -3
-23 -23 -23 -22 -22 -22 -22 -22 -22 -22 -22 -22 -22 -22 -22 -22 -22 -22 -23 -22 -20 -19 -20 -20 -19 -19 -19 -18 -18 -18 -17 -16 -16 -16 -16 -16 -16 -15 -15 -13 -13 -12 -12 -12 -12 -12 -12 -12 -11 -11 -11 -11 -11 -12 -12 -12 -12 -11 -11 -11 -10 -8 -7 -6 -5 -5 -5 -5 -4 -4 -4 -4 -4 -4
-24 -24 -23 -23 -23 -23 -23 -23 -23 -23 -23 -23 -23 -23 -23 -23 -24 -24 -24 -24 -22 -20 -21 -21 -21 -20 -20 -20 -19 -19 -19 -18 -17 -17 -17 -18 -17 -17 -16 -15 -14 -13 -13 -13 -12 -12 -12 -12 -12 -12 -12 -11 -12 -12 -12 -12 -13 -13 -13 -12 -11 -10 -9 -8 -7 -6 -5 -4 -5 -5 -5 -5 -5 -5
-25 -25 -24 -24 -24 -24 -24 -24 -24 -24 -24 -24 -24 -24 -24 -24 -24 -25 -25 -25 -25 -23 -22 -22 -22 -21 -21 -21 -20 -20 -20 -20 -19 -19 -18 -18 -19 -19 -18 -17 -16 -14 -14 -13 -13 -13 -13 -13 -13 -13 -12 -12 -12 -12 -12 -13 -13 -14 -13 -13 -12 -11 -10 -9 -8 -7 -5 -5 -5 -5 -6 -5 -5 -5
-25 -25 -25 -25 -25 -25 -25 -25 -25 -25 -25 -25 -25 -25 -25 -25 -25 -25 -26 -26 -26 -25 -24 -23 -23 -22 -22 -22 -22 -21 -21 -21 -21 -20 -19 -19 -19 -20 -19 -19 -17 -16 -15 -14 -14 -13 -13 -13 -13 -13 -13 -13 -12 -12 -12 -13 -14 -14 -14 -13 -13 -12 -11 -10 -8 -7 -6 -6 -6 -7 -7 -6 -6 -6
-26 -26 -26 -25 -25 -25 -25 -25 -25 -25 -25 -25 -26 -26 -26 -26 -26 -26 -26 -26 -26 -26 -25 -25 -24 -24 -23 -23 -23 -22 -23 -22 -22 -21 -21 -20 -19 -20 -20 -20 -19 -18 -16 -15 -14 -14 -13 -13 -13 -14 -14 -13 -13 -13 -13 -13 -14 -14 -14 -13 -13 -13 -12 -10 -9 -8 -7 -7 -7 -8 -8 -7 -7 -7
-26 -26 -26 -26 -26 -26 -26 -25 -26 -26 -26 -26 -26 -26 -26 -26 -27 -26 -26 -27 -27 -27 -26 -25 -25 -25 -24 -24 -24 -24 -23 -23 -23 -22 -22 -21 -20 -20 -20 -21 -21 -20 -18 -16 -15 -14 -14 -14 -14 -14 -14 -14 -14 -14 -13 -13 -13 -14 -14 -13 -13 -12 -12 -11 -10 -10 -9 -9 -9 -9 -9 -8 -8 -8
-27 -27 -26 -26 -26 -26 -26 -26 -26 -26 -26 -27 -27 -27 -27 -27 -27 -27 -27 -27 -27 -27 -27 -26 -26 -25 -25 -25 -25 -25 -24 -24 -24 -23 -23 -22 -22 -21 -20 -20 -21 -21 -20 -18 -17 -15 -14 -14 -14 -15 -15 -15 -15 -15 -14 -14 -14 -14 -14 -14 -13 -13 -12 -12 -11 -11 -11 -10 -9 -10 -10 -9 -9 -9
-27 -27 -27 -27 -27 -27 -27 -27 -27 -27 -27 -28 -28 -28 -28 -28 -28 -28 -28 -28 -28 -28 -27 -27 -26 -26 -26 -26 -26 -25 -25 -25 -25 -24 -24 -23 -23 -22 -21 -21 -21 -22 -21 -20 -19 -17 -16 -15 -15 -16 -16 -16 -16 -16 -15 -15 -15 -14 -14 -14 -14 -13 -13 -12 -12 -12 -11 -11 -10 -10 -10 -10 -10 -10
-28 -28 -28 -28 -28 -28 -28 -28 -28 -28 -28 -29 -29 -29 -29 -29 -29 -29 -29 -29 -29 -29 -29 -28 -27 -27 -26 -26 -26 -26 -26 -26 -26 -25 -25 -24 -23 -23 -23 -22 -23 -23 -22 -22 -20 -18 -17 -16 -15 -15 -16 -16 -16 -16 -16 -16 -15 -15 -14 -14 -14 -14 -13 -13 -12 -12 -12 -11 -11 -10 -10 -10 -10 -10
-28 -28 -28 -28 -28 -29 -29 -29 -29 -29 -30 -30 -30 -30 -30 -31 -30 -30 -30 -30 -30 -30 -30 -29 -29 -28 -27 -27 -26 -26 -26 -26 -26 -25 -25 -25 -25 -24 -23 -23 -23 -23 -23 -22 -22 -20 -19 -18 -16 -16 -16 -17 -17 -17 -17 -16 -16 -15 -15 -15 -14 -14 -14 -13 -13 -12 -12 -12 -11 -11 -10 -10 -10 -10
-28 -28 -28 -28 -28 -29 -29 -30 -30 -30 -31 -31 -31 -31 -31 -31 -31 -31 -31 -31 -31 -30 -30 -30 -30 -29 -29 -27 -27 -27 -27 -26 -26 -26 -26 -26 -25 -25 -24 -24 -23 -23 -23 -23 -23 -21 -20 -19 -18 -17 -17 -17 -18 -17 -17 -17 -17 -16 -16 -15 -15 -14 -14 -13 -13 -12 -12 -12 -11 -11 -11 -11 -11 -11
-29 -29 -29 -29 -29 -29 -30 -30 -31 -31 -31 -31 -31 -31 -31 -31 -31 -31 -31 -31 -31 -31 -31 -30 -30 -30 -29 -28 -28 -27 -27 -27 -27 -27 -26 -26 -26 -25 -25 -24 -24 -24 -24 -24 -24 -23 -21 -20 -20 -19 -18 -18 -18 -18 -17 -17 -17 -17 -16 -16 -15 -15 -14 -14 -13 -13 -12 -12 -11 -11 -11 -11 -11 -11
-30 -30 -29 -30 -29 -29 -30 -31 -31 -31 -31 -31 -32 -32 -31 -31 -31 -31 -31 -31 -31 -31 -31 -31 -31 -31 -30 -29 -28 -28 -28 -28 -27 -27 -27 -26 -26 -26 -26 -25 -24 -24 -24 -24 -24 -24 -23 -22 -21 -20 -19 -19 -19 -18 -18 -18 -18 -18 -17 -17 -16 -15 -15 -14 -14 -13 -13 -12 -12 -12 -11 -11 -11 -11
-31 -31 -31 -31 -30 -30 -30 -31 -31 -31 -31 -31 -31 -31 -31 -31 -31 -31 -31 -31 -31 -31 -31 -31 -31 -31 -31 -30 -29 -28 -28 -28 -28 -27 -27 -27 -26 -26 -26 -26 -25 -25 -24 -24 -24 -24 -24 -23 -22 -22 -21 -21 -20 -19 -18 -18 -19 -19 -19 -18 -17 -16 -15 -15 -14 -13 -13 -12 -12 -12 -12 -12 -12 -12
-32 -32 -32 -32 -31 -31 -31 -31 -31 -32 -32 -31 -31 -31 -31 -31 -31 -31 -31 -31 -31 -31 -31 -31 -31 -31 -31 -31 -30 -30 -30 -29 -28 -28 -28 -27 -27 -27 -26 -26 -25 -25 -25 -24 -24 -24 -24 -24 -24 -23 -22 -21 -20 -19 -19 -19 -19 -19 -19 -18 -18 -17 -16 -15 -14 -14 -13 -12 -12 -12 -12 -12 -12 -12
-33 -33 -33 -33 -32 -32 -32 -32 -32 -32 -32 -32 -31 -31 -31 -31 -31 -31 -31 -31 -31 -31 -31 -31 -31 -31 -31 -31 -31 -31 -30 -30 -29 -28 -28 -27 -27 -27 -26 -26 -26 -25 -25 -24 -24 -24 -24 -25 -25 -24 -23 -22 -21 -20 -19 -20 -20 -19 -19 -18 -18 -17 -16 -16 -15 -14 -14 -13 -13 -13 -13 -13 -13 -13
-33 -33 -33 -33 -33 -33 -32 -32 -32 -32 -32 -32 -31 -31 -31 -31 -31 -31 -31 -31 -31 -31 -31 -31 -31 -31 -31 -31 -31 -31 -31 -31 -29 -28 -29 -28 -27 -27 -27 -26 -26 -26 -25 -25 -25 -24 -24 -25 -25 -24 -24 -23 -22 -21 -20 -20 -20 -19 -19 -18 -18 -17 -16 -16 -15 -15 -14 -14 -14 -14 -14 -14 -14 -14
-33 -33 -33 -33 -33 -33 -32 -32 -32 -32 -32 -32 -31 -31 -31 -31 -31 -31 -31 -31 -30 -30 -30 -31 -31 -31 -31 -31 -31 -31 -31 -31 -30 -29 -29 -28 -27 -27 -27 -26 -26 -26 -25 -25 -25 -25 -25 -25 -25 -25 -25 -24 -23 -22 -22 -21 -20 -19 -19 -18 -18 -17 -17 -16 -16 -15 -15 -15 -14 -14 -14 -14 -14 -14
-33 -32 -32 -32 -33 -32 -32 -32 -32 -32 -32 -31 -31 -31 -31 -31 -31 -31 -31 -31 -30 -30 -30 -30 -30 -30 -31 -31 -31 -31 -31 -31 -31 -30 -29 -27 -27 -27 -27 -26 -26 -26 -25 -25 -25 -25 -25 -25 -25 -25 -25 -24 -23 -22 -22 -21 -20 -20 -19 -19 -18 -18 -17 -17 -16 -16 -16 -16 -15 -15 -15 -15 -15 -15
-32 -32 -32 -32 -32 -32 -32 -32 -32 -32 -31 -31 -31 -31 -31 -31 -31 -31 -31 -30 -30 -30 -30 -30 -30 -30 -31 -31 -31 -31 -31 -31 -31 -31 -30 -28 -27 -27 -27 -27 -27 -26 -26 -26 -25 -25 -25 -25 -25 -25 -25 -24 -23 -22 -22 -21 -21 -20 -19 -19 -18 -18 -18 -17 -17 -17 -17 -16 -16 -16 -16 -16 -15 -15
-32 -31 -31 -31 -31 -31 -32 -32 -32 -32 -31 -31 -31 -31 -31 -31 -31 -30 -30 -30 -30 -30 -30 -30 -30 -31 -31 -31 -32 -31 -31 -31 -31 -31 -30 -29 -28 -27 -27 -27 -27 -27 -26 -26 -26 -25 -25 -25 -25 -24 -24 -23 -23 -22 -22 -22 -21 -20 -19 -19 -18 -18 -18 -18 -18 -17 -17 -17 -17 -16 -16 -16 -16 -15
-32 -31 -31 -31 -31 -31 -31 -31 -31 -32 -31 -31 -31 -31 -31 -31 -30 -30 -30 -30 -30 -30 -30 -30 -31 -31 -31 -31 -31 -31 -31 -30 -30 -31 -30 -29 -28 -28 -27 -27 -27 -27 -27 -26 -26 -25 -25 -25 -25 -24 -24 -23 -23 -22 -22 -21 -21 -20 -20 -19 -19 -19 -19 -18 -18 -18 -17 -17 -17 -17 -16 -16 -16 -15
-33 -32 -32 -32 -32 -32 -32 -32 -32 -32 -31 -31 -31 -30 -30 -30 -29 -29 -30 -30 -30 -30 -30 -30 -31 -31 -31 -31 -31 -30 -30 -30 -30 -30 -30 -29 -28 -28 -27 -27 -27 -27 -26 -26 -26 -25 -25 -25 -25 -24 -24 -23 -23 -22 -22 -21 -21 -20 -20 -19 -19 -19 -19 -18 -18 -18 -17 -17 -17 -17 -16 -16 -16 -15
-33 -33 -32 -32 -32 -32 -32 -32 -32 -31 -31 -31 -31 -30 -30 -29 -29 -29 -29 -29 -30 -30 -30 -30 -30 -30 -30 -30 -30 -30 -29 -29 -29 -29 -29 -29 -28 -27 -27 -27 -27 -27 -26 -26 -26 -26 -25 -25 -24 -24 -23 -23 -23 -22 -22 -22 -21 -20 -20 -20 -19 -19 -19 -18 -18 -18 -17 -17 -17 -17 -17 -16 -16 -16
-32 -32 -32 -32 -32 -31 -31 -31 -31 -31 -31 -31 -30 -30 -30 -29 -29 -29 -29 -29 -29 -29 -30 -30 -30 -30 -29 -29 -29 -29 -29 -29 -29 -29 -29 -28 -28 -27 -27 -27 -27 -27 -26 -26 -26 -26 -25 -25 -24 -24 -23 -23 -23 -22 -22 -22 -21 -20 -20 -20 -19 -19 -19 -18 -18 -18 -18 -17 -17 -17 -17 -16 -16 -16
-32 -31 -31 -31 -31 -31 -31 -31 -31 -30 -30 -30 -30 -30 -29 -29 -29 -29 -29 -29 -29 -29 -29 -29 -29 -29 -29 -29 -28 -28 -29 -29 -29 -29 -29 -28 -27 -27 -27 -27 -27 -27 -26 -26 -26 -26 -25 -25 -24 -24 -23 -23 -23 -22 -22 -22 -21 -21 -20 -20 -19 -19 -19 -18 -18 -18 -18 -18 -17 -17 -17 -17 -16 -16
-31 -31 -31 -31 -31 -30 -30 -30 -30 -30 -30 -29 -29 -29 -29 -29 -29 -29 -29 -29 -29 -29 -29 -29 -29 -29 -29 -28 -28 -28 -28 -28 -28 -28 -28 -28 -27 -27 -27 -27 -27 -27 -27 -27 -26 -26 -25 -24 -24 -24 -23 -23 -22 -22 -22 -22 -21 -21 -20 -20 -19 -19 -19 -19 -19 -18 -18 -18 -18 -18 -17 -17 -17 -16
-31 -31 -30 -30 -30 -30 -30 -30 -29 -29 -29 -29 -29 -29 -28 -28 -28 -28 -28 -28 -28 -28 -28 -29 -29 -29 -28 -28 -28 -28 -28 -28 -27 -27 -27 -27 -27 -27 -27 -27 -27 -27 -27 -26 -26 -25 -25 -24 -24 -24 -23 -23 -22 -22 -22 -22 -21 -21 -21 -20 -20 -20 -20 -19 -19 -19 -19 -19 -19 -18 -18 -17 -17 -17
-31 -30 -30 -30 -30 -30 -30 -29 -29 -29 -29 -29 -28 -28 -28 -28 -28 -28 -28 -27 -28 -28 -28 -28 -28 -28 -28 -28 -28 -28 -27 -27 -27 -27 -27 -27 -27 -27 -27 -27 -27 -27 -26 -26 -26 -25 -24 -24 -24 -23 -23 -23 -23 -22 -22 -22 -22 -21 -21 -21 -20 -20 -20 -20 -20 -19 -19 -19 -19 -19 -18 -18 -17 -17
-30 -30 -30 -30 -30 -30 -29 -29 -29 -29 -29 -29 -28 -28 -28 -28 -28 -28 -27 -27 -27 -28 -28 -28 -28 -28 -28 -28 -28 -28 -27 -27 -27 -27 -27 -27 -27 -27 -27 -27 -27 -26 -26 -26 -25 -25 -24 -24 -24 -23 -23 -23 -23 -22 -22 -22 -22 -21 -21 -21 -21 -21 -21 -21 -20 -20 -20 -20 -19 -19 -19 -19 -18 -17
-30 -30 -30 -30 -30 -30 -29 -29 -29 -29 -28 -28 -28 -28 -28 -28 -28 -28 -28 -28 -28 -28 -28 -28 -28 -28 -28 -28 -28 -27 -27 -27 -27 -27 -27 -27 -27 -27 -27 -26 -26 -26 -25 -25 -25 -25 -24 -24 -23 -23 -23 -23 -23 -22 -22 -22 -22 -21 -21 -22 -22 -22 -22 -21 -21 -21 -20 -20 -20 -20 -19 -19 -18 -18
-30 -30 -30 -30 -30 -30 -29 -29 -29 -29 -28 -28 -28 -28 -28 -28 -28 -28 -28 -28 -28 -28 -28 -28 -28 -28 -28 -28 -28 -27 -27 -27 -27 -27 -27 -27 -26 -26 -26 -26 -25 -25 -25 -25 -25 -24 -24 -24 -23 -24 -24 -23 -23 -23 -22 -22 -22 -22 -22 -22 -23 -23 -22 -21 -21 -21 -21 -20 -20 -20 -19 -19 -18 -18
-30 -30 -30 -30 -30 -30 -29 -29 -29 -29 -28 -28 -28 -28 -28 -28 -28 -28 -28 -28 -28 -28 -28 -28 -28 -28 -28 -28 -28 -27 -27 -27 -27 -27 -27 -26 -26 -26 -26 -25 -25 -25 -25 -25 -25 -24 -24 -24 -24 -24 -24 -23 -23 -23 -22 -22 -22 -22 -22 -23 -23 -22 -22 -21 -21 -21 -21 -21 -20 -20 -20 -19 -19 -19
-31 -31 -31 -30 -30 -30 -30 -29 -29 -29 -28 -28 -28 -28 -28 -28 -28 -28 -28 -28 -28 -28 -28 -28 -28 -28 -28 -27 -27 -27 -27 -27 -27 -27 -26 -26 -26 -26 -26 -26 -25 -25 -25 -25 -25 -24 -24 -24 -24 -24 -24 -23 -23 -23 -23 -23 -23 -23 -23 -23 -22 -22 -22 -22 -22 -21 -21 -21 -20 -20 -20 -20 -20 -19
-31 -31 -31 -30 -30 -30 -30 -29 -29 -29 -29 -28 -28 -28 -28 -28 -28 -28 -28 -28 -28 -28 -28 -28 -28 -28 -28 -27 -27 -27 -27 -27 -27 -27 -26 -26 -26 -26 -26 -26 -26 -25 -25 -25 -25 -24 -25 -25 -24 -24 -24 -23 -23 -23 -23 -23 -23 -23 -23 -22 -22 -22 -22 -22 -22 -21 -21 -21 -21 -21 -20 -20 -20 -20
-31 -31 -31 -31 -30 -30 -30 -29 -29 -29 -29 -29 -29 -28 -28 -28 -28 -28 -28 -28 -28 -28 -28 -28 -28 -28 -28 -28 -27 -27 -27 -27 -26 -26 -26 -26 -26 -26 -26 -26 -26 -26 -25 -25 -25 -25 -25 -25 -24 -24 -24 -23 -23 -23 -23 -23 -23 -23 -23 -22 -22 -22 -22 -22 -21 -21 -21 -21 -21 -21 -21 -20 -20 -20
-31 -31 -31 -31 -30 -30 -30 -30 -29 -29 -29 -29 -29 -29 -28 -28 -28 -28 -28 -28 -28 -28 -28 -28 -28 -28 -28 -28 -27 -27 -27 -26 -26 -26 -27 -26 -26 -26 -27 -27 -26 -26 -25 -25 -25 -25 -25 -24 -24 -24 -24 -24 -24 -23 -23 -23 -23 -23 -23 -23 -22 -22 -22 -22 -21 -21 -21 -21 -21 -21 -21 -21 -20 -20
-31 -31 -31 -31 -30 -30 -30 -30 -30 -29 -29 -29 -29 -29 -29 -28 -28 -28 -28 -28 -28 -28 -28 -28 -28 -28 -28 -28 -27 -27 -27 -27 -27 -27 -27 -27 -27 -27 -27 -27 -26 -26 -25 -25 -24 -25 -24 -24 -24 -24 -24 -24 -24 -23 -23 -23 -23 -23 -23 -22 -22 -22 -22 -22 -21 -21 -21 -21 -21 -21 -21 -21 -20 -20
-31 -31 -31 -31 -30 -30 -30 -30 -30 -30 -29 -29 -29 -29 -29 -29 -28 -28 -28 -28 -28 -28 -28 -28 -28 -28 -28 -27 -27 -27 -27 -27 -27 -27 -27 -27 -27 -27 -27 -26 -26 -25 -25 -24 -24 -24 -24 -24 -24 -24 -24 -24 -24 -23 -23 -23 -23 -23 -23 -22 -22 -22 -22 -22 -22 -22 -21 -21 -21 -21 -21 -21 -20 -20
-32 -31 -31 -31 -31 -30 -30 -30 -30 -30 -30 -29 -29 -29 -29 -29 -29 -28 -28 -28 -28 -28 -28 -28 -28 -28 -28 -28 -27 -27 -27 -27 -27 -27 -27 -27 -27 -27 -27 -26 -25 -25 -25 -24 -24 -25 -25 -24 -24 -24 -24 -24 -24 -23 -23 -23 -23 -23 -22 -22 -22 -22 -22 -22 -22 -22 -21 -21 -21 -21 -21 -21 -21 -20
-32 -32 -31 -31 -31 -30 -30 -30 -30 -30 -30 -29 -29 -29 -29 -29 -29 -28 -28 -27 -28 -28 -27 -27 -27 -27 -27 -27 -27 -27 -27 -26 -26 -26 -26 -26 -26 -26 -26 -26 -25 -25 -25 -25 -25 -24 -24 -24 -24 -24 -24 -24 -23 -23 -23 -23 -23 -23 -22 -22 -22 -22 -22 -22 -22 -22 -22 -21 -21 -21 -21 -21 -21 -21
-31 -31 -31 -31 -31 -30 -30 -30 -30 -30 -30 -30 -29 -29 -29 -29 -28 -28 -28 -27 -27 -27 -27 -27 -27 -27 -27 -27 -27 -27 -27 -26 -26 -26 -26 -26 -26 -26 -26 -26 -25 -25 -25 -25 -24 -24 -24 -24 -24 -24 -24 -24 -23 -23 -23 -23 -23 -22 -22 -22 -22 -22 -22 -22 -22 -22 -22 -22 -21 -21 -21 -21 -21 -21
Height
2892 2891 2891 2890 2890 2890 2889 2888 2889 2888 2888 2887 2887 2886 2885 2882 2878 2875 2874 2875 2880 2886 2887 2887 2891 2896 2898 2900 2903 2906 2908 2910 2911 2910 2911 2911 2913 2915 2917 2920 2924 2928 2933 2934 2934 2935 2938 2940 2943 2944 2946 2949 2952 2954 2956 2958 2960 2962 2964 2966 2968 2970 2972 2974 2976 2978 2980 2982 2985 2987 2989 2991 2994 2996
2882 2881 2880 2881 2881 2881 2879 2878 2879 2878 2877 2877 2877 2876 2875 2875 2871 2867 2864 2861 2867 2874 2875 2876 2879 2883 2887 2888 2891 2895 2897 2900 2902 2901 2901 2902 2903 2905 2907 2909 2912 2917 2922 2925 2925 2926 2928 2931 2934 2936 2938 2941 2944 2945 2947 2950 2952 2953 2955 2956 2958 2960 2963 2966 2968 2970 2972 2974 2977 2980 2982 2983 2986 2989
2872 2870 2870 2870 2870 2870 2869 2868 2869 2869 2868 2867 2866 2866 2866 2866 2864 2862 2857 2850 2856 2864 2863 2864 2868 2871 2874 2877 2879 2881 2885 2889 2892 2892 2892 2893 2894 2896 2897 2899 2901 2905 2911 2915 2917 2917 2919 2922 2924 2927 2930 2933 2937 2939 2940 2942 2944 2945 2947 2948 2949 2951 2953 2957 2960 2962 2964 2966 2969 2972 2975 2976 2979 2981
2863 2861 2860 2860 2860 2860 2858 2858 2858 2858 2858 2857 2857 2856 2856 2856 2855 2854 2850 2842 2843 2853 2853 2852 2857 2860 2861 2864 2866 2868 2872 2877 2881 2884 2884 2884 2885 2886 2887 2889 2891 2894 2900 2905 2908 2909 2910 2912 2915 2917 2920 2924 2928 2931 2933 2935 2936 2938 2939 2940 2940 2942 2944 2947 2950 2953 2955 2958 2961 2964 2967 2969 2971 2973
2854 2852 2851 2851 2851 2850 2848 2848 2848 2847 2846 2846 2846 2847 2846 2846 2846 2845 2842 2835 2833 2839 2844 2843 2845 2850 2851 2851 2854 2857 2859 2863 2868 2873 2875 2876 2876 2876 2878 2879 2881 2884 2888 2894 2898 2901 2902 2903 2906 2908 2911 2915 2919 2922 2925 2927 2929 2930 2930 2931 2932 2933 2936 2938 2940 2943 2946 2950 2954 2957 2959 2962 2964 2966
2846 2843 2842 2842 2842 2841 2839 2839 2839 2837 2837 2836 2835 2836 2836 2836 2837 2837 2834 2829 2825 2826 2832 2835 2835 2839 2841 2839 2842 2847 2848 2851 2855 2858 2863 2867 2867 2867 2868 2870 2872 2874 2878 2883 2888 2892 2893 2895 2897 2899 2902 2905 2908 2913 2917 2919 2921 2921 2922 2923 2924 2925 2926 2929 2932 2934 2937 2941 2946 2949 2952 2954 2957 2959
2837 2835 2834 2834 2834 2833 2831 2830 2830 2829 2828 2827 2825 2826 2826 2825 2826 2828 2826 2822 2819 2817 2820 2824 2825 2828 2830 2829 2832 2836 2837 2840 2843 2844 2849 2855 2858 2858 2859 2860 2862 2865 2868 2873 2877 2882 2885 2886 2888 2891 2893 2895 2898 2903 2908 2911 2911 2912 2913 2914 2915 2915 2917 2920 2923 2925 2929 2933 2938 2942 2944 2947 2949 2951
2829 2827 2826 2826 2825 2824 2822 2822 2822 2821 2820 2819 2817 2817 2817 2816 2816 2818 2817 2814 2813 2810 2810 2814 2816 2818 2819 2819 2822 2826 2827 2829 2833 2835 2837 2841 2846 2849 2851 2851 2852 2855 2859 2863 2867 2871 2875 2877 2880 2882 2884 2886 2889 2893 2898 2901 2902 2902 2904 2905 2906 2906 2908 2911 2915 2919 2923 2926 2929 2933 2936 2938 2941 2943
2821 2819 2817 2817 2816 2814 2813 2813 2813 2813 2812 2811 2810 2809 2809 2808 2807 2808 2808 2806 2805 2803 2802 2804 2808 2809 2809 2809 2812 2817 2818 2819 2823 2825 2827 2830 2834 2839 2842 2843 2844 2846 2849 2853 2856 2861 2865 2868 2871 2873 2875 2877 2880 2883 2887 2891 2894 2894 2895 2896 2898 2898 2900 2904 2908 2912 2916 2918 2921 2924 2927 2929 2932 2935
2813 2811 2809 2808 2807 2806 2805 2805 2804 2804 2803 2802 2801 2801 2800 2800 2799 2798 2799 2799 2797 2796 2795 2796 2798 2800 2801 2801 2802 2808 2811 2810 2812 2815 2818 2822 2825 2828 2831 2834 2836 2838 2840 2843 2846 2850 2854 2858 2862 2864 2866 2869 2872 2874 2877 2880 2884 2886 2887 2888 2889 2891 2894 2898 2901 2905 2908 2910 2913 2916 2918 2921 2924 2926
2804 2803 2801 2800 2799 2798 2797 2797 2796 2796 2795 2794 2793 2793 2793 2792 2791 2790 2791 2791 2789 2788 2788 2788 2789 2791 2793 2793 2793 2799 2803 2802 2802 2806 2809 2812 2816 2819 2822 2825 2828 2831 2832 2834 2837 2841 2844 2848 2852 2855 2858 2861 2863 2866 2868 2871 2874 2877 2880 2881 2883 2885 2888 2891 2894 2897 2900 2903 2906 2908 2910 2912 2915 2918
2796 2794 2793 2792 2791 2791 2789 2789 2789 2788 2787 2786 2785 2786 2786 2785 2784 2784 2783 2783 2782 2781 2781 2781 2781 2782 2784 2785 2786 2789 2793 2793 2794 2799 2801 2803 2806 2811 2814 2817 2820 2823 2825 2826 2828 2832 2835 2838 2842 2846 2849 2852 2855 2858 2860 2863 2865 2868 2872 2875 2877 2879 2882 2884 2886 2889 2892 2895 2897 2900 2902 2904 2907 2909
2788 2787 2786 2785 2785 2784 2783 2782 2781 2781 2780 2779 2778 2779 2780 2780 2779 2778 2777 2776 2776 2775 2774 2773 2774 2774 2775 2777 2779 2780 2783 2785 2787 2792 2795 2796 2798 2802 2805 2808 2813 2816 2818 2819 2820 2823 2826 2829 2832 2836 2840 2843 2848 2851 2853 2855 2858 2861 2864 2867 2870 2872 2874 2876 2879 2881 2884 2886 2889 2892 2894 2897 2899 2901
2779 2779 2778 2778 2778 2777 2777 2776 2775 2775 2775 2774 2773 2774 2774 2774 2773 2772 2771 2770 2769 2768 2767 2766 2767 2766 2766 2769 2772 2772 2775 2778 2780 2783 2787 2789 2792 2795 2796 2798 2803 2809 2812 2813 2812 2814 2818 2820 2823 2826 2830 2835 2840 2843 2846 2849 2852 2854 2857 2859 2862 2864 2866 2868 2870 2873 2875 2878 2881 2884 2886 2889 2891 2894
2771 2771 2771 2771 2771 2771 2771 2770 2769 2769 2769 2769 2769 2769 2769 2769 2768 2766 2765 2764 2763 2762 2760 2759 2760 2758 2758 2761 2764 2764 2767 2770 2772 2775 2778 2782 2786 2788 2789 2790 2794 2800 2805 2806 2806 2807 2810 2812 2814 2817 2822 2828 2832 2835 2839 2842 2845 2847 2849 2852 2854 2856 2858 2860 2862 2865 2867 2870 2873 2876 2879 2881 2884 2886
2765 2764 2764 2764 2764 2764 2765 2764 2764 2763 2764 2764 2764 2764 2764 2764 2763 2762 2760 2758 2757 2756 2754 2752 2752 2751 2751 2752 2754 2756 2759 2762 2764 2766 2769 2774 2778 2780 2782 2785 2788 2793 2799 2801 2801 2801 2803 2805 2807 2810 2814 2820 2824 2828 2832 2835 2838 2840 2842 2844 2845 2848 2850 2852 2854 2857 2860 2863 2865 2868 2871 2874 2876 2879
2759 2758 2757 2757 2757 2758 2759 2758 2758 2758 2758 2759 2759 2759 2758 2758 2758 2758 2757 2755 2753 2751 2749 2745 2743 2744 2745 2744 2745 2748 2752 2753 2755 2757 2760 2765 2770 2773 2775 2778 2782 2788 2794 2796 2795 2796 2797 2798 2800 2803 2808 2812 2816 2820 2824 2828 2831 2834 2835 2836 2838 2840 2843 2845 2847 2850 2852 2855 2858 2861 2863 2866 2868 2871
2755 2754 2753 2751 2751 2752 2753 2753 2753 2752 2752 2752 2752 2752 2752 2751 2751 2751 2751 2751 2750 2748 2745 2740 2736 2737 2738 2736 2737 2741 2744 2745 2747 2749 2752 2757 2762 2766 2769 2772 2776 2781 2786 2789 2790 2789 2791 2793 2794 2796 2800 2804 2809 2814 2817 2821 2824 2826 2828 2830 2832 2834 2836 2838 2840 2842 2845 2848 2851 2853 2856 2858 2861 2864
2751 2750 2748 2746 2746 2746 2746 2748 2748 2747 2747 2746 2745 2745 2744 2743 2743 2743 2743 2743 2743 2742 2740 2737 2733 2732 2732 2730 2730 2733 2735 2736 2739 2742 2745 2749 2755 2758 2761 2764 2768 2772 2778 2782 2784 2783 2784 2787 2789 2790 2792 2796 2801 2806 2810 2814 2817 2820 2822 2823 2825 2827 2829 2831 2833 2835 2837 2840 2843 2845 2848 2851 2854 2856
2748 2746 2744 2742 2741 2740 2740 2742 2743 2743 2742 2741 2739 2738 2737 2736 2735 2734 2735 2736 2735 2733 2732 2730 2728 2728 2727 2726 2724 2725 2727 2727 2731 2735 2737 2740 2746 2751 2753 2756 2760 2765 2770 2775 2778 2778 2779 2782 2784 2785 2787 2790 2794 2799 2803 2807 2811 2813 2815 2817 2818 2820 2823 2825 2827 2829 2831 2833 2836 2838 2841 2844 2847 2850
2743 2741 2740 2738 2736 2735 2735 2736 2738 2739 2738 2737 2734 2732 2730 2730 2728 2726 2727 2728 2727 2727 2726 2724 2723 2722 2722 2722 2721 2721 2722 2722 2725 2727 2727 2731 2738 2744 2746 2749 2754 2759 2764 2768 2772 2773 2774 2776 2778 2780 2783 2786 2788 2792 2796 2801 2804 2806 2808 2810 2812 2814 2816 2818 2820 2822 2824 2827 2829 2832 2835 2838 2841 2843
2737 2736 2735 2734 2732 2730 2730 2731 2732 2734 2734 2732 2729 2727 2725 2724 2722 2720 2720 2719 2719 2720 2720 2718 2718 2717 2717 2717 2716 2716 2717 2719 2721 2720 2719 2725 2733 2736 2740 2744 2749 2753 2758 2762 2765 2767 2768 2771 2773 2775 2777 2780 2783 2787 2791 2795 2798 2800 2802 2804 2806 2808 2809 2812 2814 2816 2818 2821 2823 2826 2828 2831 2834 2836
2732 2731 2730 2730 2729 2727 2727 2727 2728 2729 2728 2726 2724 2722 2720 2717 2715 2715 2715 2713 2711 2711 2711 2711 2710 2710 2709 2709 2707 2706 2708 2711 2714 2713 2713 2719 2725 2728 2733 2740 2744 2747 2751 2755 2759 2761 2762 2765 2768 2770 2773 2775 2778 2783 2786 2789 2792 2795 2796 2798 2800 2802 2804 2806 2808 2810 2813 2815 2817 2820 2822 2825 2828 2830
2727 2726 2725 2725 2724 2724 2723 2722 2722 2722 2722 2721 2719 2717 2714 2711 2709 2709 2709 2708 2706 2704 2703 2702 2702 2701 2700 2699 2697 2696 2697 2700 2704 2705 2707 2711 2716 2721 2728 2734 2738 2741 2745 2749 2754 2757 2759 2762 2765 2767 2770 2771 2774 2778 2782 2784 2787 2789 2790 2792 2794 2797 2799 2801 2803 2805 2807 2809 2812 2814 2817 2820 2822 2824
2722 2721 2720 2719 2719 2718 2716 2716 2715 2714 2714 2714 2713 2710 2707 2705 2704 2704 2703 2702 2701 2699 2697 2696 2694 2692 2691 2689 2688 2687 2688 2691 2695 2698 2700 2704 2709 2715 2723 2729 2733 2736 2740 2745 2750 2753 2756 2758 2761 2764 2766 2767 2769 2774 2777 2779 2781 2784 2785 2787 2790 2793 2795 2796 2798 2800 2802 2804 2807 2809 2812 2814 2817 2819
2718 2717 2715 2714 2713 2711 2710 2709 2708 2707 2706 2706 2704 2703 2702 2702 2702 2700 2697 2696 2695 2694 2693 2691 2689 2687 2685 2684 2683 2683 2683 2684 2688 2692 2695 2699 2705 2711 2718 2724 2728 2731 2736 2741 2746 2750 2752 2754 2757 2760 2762 2763 2766 2770 2773 2774 2776 2779 2781 2783 2785 2788 2790 2791 2793 2795 2797 2800 2802 2805 2807 2810 2812 2815
2716 2714 2712 2710 2708 2707 2705 2703 2702 2700 2699 2698 2697 2697 2698 2699 2698 2696 2693 2690 2689 2689 2689 2687 2685 2684 2683 2682 2681 2680 2680 2682 2685 2688 2692 2697 2703 2709 2715 2721 2725 2729 2734 2739 2742 2745 2747 2749 2752 2756 2758 2760 2763 2766 2768 2769 2771 2774 2777 2779 2781 2783 2785 2786 2789 2791 2794 2796 2798 2801 2803 2805 2808 2810
2714 2711 2709 2707 2705 2703 2701 2699 2697 2695 2694 2693 2693 2693 2694 2694 2693 2692 2689 2687 2686 2686 2686 2685 2683 2682 2682 2681 2680 2680 2680 2682 2685 2688 2691 2696 2703 2709 2715 2719 2723 2727 2731 2735 2737 2740 2743 2745 2748 2751 2754 2756 2759 2762 2764 2766 2767 2770 2773 2775 2777 2779 2781 2783 2785 2788 2790 2793 2795 2797 2799 2801 2804 2806
2712 2709 2707 2705 2703 2701 2699 2697 2695 2693 2691 2691 2690 2690 2690 2690 2689 2688 2686 2685 2685 2684 2684 2683 2682 2682 2681 2681 2681 2681 2681 2683 2685 2687 2690 2696 2703 2709 2713 2718 2721 2725 2728 2731 2734 2737 2739 2742 2745 2747 2750 2753 2756 2758 2760 2762 2764 2767 2769 2771 2774 2776 2778 2780 2782 2784 2787 2789 2791 2793 2795 2797 2800 2802
2710 2708 2706 2704 2702 2700 2698 2696 2694 2693 2692 2691 2690 2689 2688 2687 2686 2684 2683 2682 2682 2683 2683 2682 2681 2681 2681 2680 2680 2681 2683 2684 2685 2687 2691 2697 2702 2707 2711 2715 2719 2722 2725 2728 2730 2733 2736 2738 2741 2744 2747 2750 2753 2755 2756 2758 2761 2764 2766 2769 2771 2773 2775 2777 2779 2782 2784 2786 2788 2790 2792 2794 2796 2798
2708 2706 2704 2703 2701 2699 2697 2696 2695 2694 2692 2691 2689 2688 2687 2685 2683 2682 2680 2678 2679 2680 2681 2681 2681 2681 2681 2680 2681 2682 2684 2686 2688 2691 2694 2698 2703 2706 2710 2713 2716 2719 2722 2725 2727 2730 2732 2735 2738 2741 2744 2747 2749 2751 2752 2755 2758 2761 2763 2766 2769 2770 2773 2775 2777 2779 2781 2784 2786 2787 2789 2791 2793 2794
2707 2705 2703 2701 2699 2698 2697 2696 2695 2694 2692 2690 2688 2687 2685 2683 2681 2679 2677 2675 2676 2678 2679 2680 2680 2681 2681 2681 2682 2684 2686 2688 2690 2693 2696 2699 2702 2705 2708 2710 2713 2716 2719 2722 2724 2726 2729 2732 2735 2738 2740 2743 2745 2747 2749 2751 2754 2758 2761 2764 2766 2768 2771 2773 2775 2777 2779 2781 2783 2785 2786 2788 2789 2791
2706 2704 2702 2700 2698 2698 2697 2696 2695 2693 2691 2690 2688 2686 2684 2682 2680 2677 2676 2676 2676 2677 2678 2679 2680 2681 2681 2682 2683 2685 2687 2689 2691 2693 2695 2698 2701 2703 2706 2708 2711 2714 2717 2719 2721 2724 2727 2729 2732 2734 2737 2739 2741 2743 2746 2749 2752 2756 2759 2762 2764 2766 2768 2771 2773 2775 2777 2779 2781 2783 2784 2785 2786 2788
2704 2702 2701 2699 2698 2697 2697 2695 2694 2692 2691 2689 2688 2686 2684 2682 2680 2678 2677 2677 2678 2678 2679 2679 2680 2681 2682 2683 2685 2686 2687 2689 2691 2693 2695 2697 2699 2701 2704 2707 2709 2712 2715 2717 2719 2721 2724 2726 2728 2731 2734 2736 2738 2741 2743 2747 2750 2754 2757 2760 2762 2764 2767 2769 2771 2774 2776 2777 2779 2781 2782 2782 2784 2786
2703 2701 2700 2699 2698 2697 2696 2695 2693 2692 2691 2689 2688 2686 2684 2683 2682 2680 2679 2679 2679 2680 2680 2680 2681 2682 2683 2684 2686 2687 2688 2689 2691 2692 2694 2696 2698 2700 2703 2705 2707 2710 2712 2714 2716 2718 2720 2723 2726 2729 2731 2733 2736 2739 2742 2745 2749 2752 2756 2759 2761 2763 2765 2768 2770 2772 2774 2776 2777 2779 2780 2781 2782 2784
2701 2700 2699 2698 2697 2696 2696 2694 2693 2692 2690 2689 2688 2687 2685 2684 2683 2682 2681 2680 2681 2681 2682 2682 2682 2683 2684 2685 2686 2687 2688 2689 2690 2691 2693 2695 2697 2699 2701 2703 2705 2707 2710 2712 2713 2715 2718 2721 2724 2726 2728 2731 2734 2737 2741 2744 2747 2751 2754 2757 2760 2762 2764 2766 2769 2771 2772 2774 2775 2777 2778 2779 2781 2782
2700 2699 2698 2697 2696 2695 2694 2694 2692 2691 2690 2689 2688 2687 2686 2685 2684 2683 2683 2682 2682 2682 2682 2683 2683 2683 2684 2685 2685 2686 2687 2689 2690 2691 2692 2694 2696 2697 2699 2701 2702 2704 2707 2709 2710 2713 2716 2719 2722 2724 2727 2730 2733 2736 2740 2743 2746 2749 2752 2755 2758 2760 2763 2765 2767 2769 2771 2772 2774 2775 2776 2777 2778 2779
2698 2697 2696 2695 2695 2694 2693 2692 2691 2690 2689 2688 2687 2686 2685 2685 2684 2684 2683 2683 2682 2682 2682 2682 2683 2683 2683 2684 2684 2685 2686 2687 2688 2690 2691 2692 2693 2695 2696 2698 2700 2702 2704 2706 2708 2711 2715 2717 2720 2722 2726 2729 2732 2736 2739 2742 2745 2749 2752 2755 2758 2760 2762 2765 2767 2768 2770 2771 2773 2774 2775 2776 2777 2778
2696 2695 2694 2694 2693 2692 2692 2691 2690 2689 2688 2687 2687 2686 2685 2684 2684 2683 2683 2683 2682 2682 2682 2682 2682 2682 2682 2682 2682 2683 2684 2684 2686 2687 2688 2689 2691 2693 2694 2696 2698 2700 2702 2704 2707 2710 2713 2715 2718 2722 2725 2729 2732 2736 2739 2743 2746 2749 2752 2755 2757 2760 2762 2764 2766 2768 2769 2770 2772 2773 2774 2775 2776 2776
2694 2693 2692 2692 2691 2690 2690 2689 2688 2688 2687 2686 2686 2685 2684 2683 2683 2683 2682 2682 2682 2682 2682 2681 2681 2681 2681 2680 2680 2680 2680 2681 2683 2685 2686 2687 2689 2691 2693 2695 2697 2699 2701 2704 2707 2709 2712 2715 2719 2722 2726 2730 2733 2736 2739 2743 2746 2749 2752 2754 2757 2759 2761 2763 2765 2767 2768 2769 2771 2772 2773 2774 2775 2775
2692 2691 2690 2689 2689 2688 2688 2687 2687 2686 2686 2685 2684 2684 2683 2682 2682 2681 2681 2681 2682 2681 2681 2681 2680 2679 2679 2679 2678 2678 2678 2679 2680 2682 2684 2686 2688 2690 2692 2694 2696 2698 2701 2703 2706 2710 2713 2716 2719 2723 2726 2730 2733 2736 2739 2741 2744 2747 2751 2753 2756 2758 2760 2762 2764 2766 2767 2768 2769 2771 2772 2773 2773 2774
2690 2689 2688 2687 2687 2686 2686 2686 2685 2685 2684 2684 2683 2682 2681 2681 2681 2680 2680 2681 2681 2681 2681 2680 2679 2678 2678 2678 2678 2677 2677 2678 2679 2681 2683 2685 2687 2690 2692 2693 2695 2698 2700 2703 2707 2710 2713 2715 2718 2722 2726 2729 2732 2735 2739 2742 2744 2747 2750 2752 2755 2757 2760 2762 2763 2765 2766 2767 2768 2769 2770 2771 2772 2772
2689 2687 2686 2685 2684 2684 2684 2684 2684 2684 2683 2682 2681 2681 2680 2680 2680 2679 2679 2680 2680 2680 2680 2679 2679 2678 2677 2677 2677 2677 2677 2678 2679 2681 2683 2685 2687 2690 2692 2693 2695 2698 2701 2704 2707 2709 2712 2714 2718 2721 2725 2729 2731 2735 2738 2742 2744 2747 2749 2752 2755 2757 2758 2760 2762 2764 2765 2766 2767 2768 2769 2770 2770 2771
2688 2686 2685 2683 2682 2682 2682 2682 2682 2682 2682 2681 2680 2680 2680 2679 2679 2679 2679 2680 2680 2680 2680 2679 2678 2678 2677 2676 2677 2678 2678 2678 2680 2681 2683 2685 2687 2690 2692 2694 2696 2698 2701 2704 2706 2709 2712 2715 2718 2722 2725 2729 2731 2735 2738 2741 2744 2747 2749 2752 2754 2756 2758 2760 2762 2763 2764 2766 2767 2768 2768 2769 2770 2770
2688 2686 2684 2682 2681 2680 2680 2681 2681 2681 2681 2680 2680 2679 2679 2679 2679 2679 2679 2680 2680 2680 2679 2679 2679 2678 2677 2677 2678 2678 2679 2680 2681 2682 2683 2685 2687 2690 2692 2695 2697 2699 2701 2704 2706 2709 2712 2715 2718 2722 2726 2729 2732 2735 2738 2741 2744 2746 2749 2751 2753 2755 2757 2759 2761 2762 2764 2765 2766 2767 2768 2768 2769 2770
Wind_Speed
59 59 59 60 61 61 62 63 64 65 65 66 67 68 69 70 74 77 79 80 79 77 76 76 75 73 72 71 70 69 67 66 66 67 68 70 70 70 70 70 68 64 60 60 62 64 63 62 62 62 62 62 61 60 60 60 60 61 62 62 62 61 60 60 60 60 59 58 56 54 54 54 52 50
59 58 59 59 59 58 59 60 61 61 62 63 64 65 66 67 70 74 78 81 81 78 77 77 76 75 73 72 72 71 69 68 67 67 67 68 69 69 69 69 68 66 61 59 60 63 63 62 61 61 61 60 57 56 57 57 57 59 60 62 63 63 63 62 62 62 61 60 58 56 56 56 54 52
58 58 59 59 59 58 59 60 60 59 59 60 61 63 64 65 66 69 72 78 80 77 76 76 75 75 74 73 72 73 72 70 68 67 67 68 68 68 69 69 68 67 62 58 59 61 62 62 61 61 61 59 54 52 53 53 53 55 56 58 61 64 65 65 63 63 63 62 61 59 58 57 56 56
56 57 57 58 58 57 58 59 59 59 59 59 60 60 61 62 63 64 67 73 77 76 74 75 75 74 74 73 72 72 73 71 69 67 67 67 67 67 68 70 69 67 64 59 58 59 61 61 61 61 61 59 54 50 50 51 50 51 53 55 58 63 65 65 65 64 64 64 63 61 59 58 58 58
54 56 56 57 57 57 57 57 58 59 59 59 59 59 59 60 60 61 63 68 73 75 73 73 74 74 74 74 74 72 72 72 70 68 66 65 65 66 67 69 70 68 65 61 58 58 59 60 60 60 61 60 57 53 52 52 50 49 51 54 58 62 63 65 66 66 66 65 63 61 61 60 59 59
53 55 56 56 55 56 57 57 57 57 57 58 58 58 57 58 57 57 59 63 68 72 72 71 72 73 73 73 74 73 72 71 70 69 67 64 63 65 66 67 69 69 66 63 59 57 58 59 59 59 60 61 60 57 55 52 50 50 52 55 58 62 64 65 66 67 68 66 63 60 60 60 60 59
53 54 55 54 54 54 55 55 55 55 56 56 57 57 56 56 56 55 56 59 63 66 69 68 69 71 72 72 72 72 71 70 69 70 69 67 64 64 65 67 68 69 68 65 61 58 58 59 59 58 59 60 61 59 56 53 53 54 56 57 59 63 65 66 67 68 68 66 63 59 58 59 60 60
53 54 54 54 54 54 55 55 54 54 54 55 55 56 55 55 55 55 55 57 59 61 64 65 66 68 69 70 70 70 70 69 69 69 69 69 67 65 64 65 66 68 68 66 63 60 59 60 60 58 57 58 59 59 58 57 57 59 60 61 63 65 67 68 68 67 65 63 62 60 59 59 59 59
54 54 55 54 54 55 55 55 54 54 53 54 54 54 54 54 54 54 54 55 57 58 61 62 63 64 66 67 66 67 68 68 68 67 67 67 65 64 63 63 63 65 67 66 65 63 60 60 60 58 57 57 57 58 58 58 59 60 62 64 65 67 68 67 65 63 62 62 61 60 59 59 59 59
53 54 55 55 54 55 55 54 54 53 52 52 52 52 52 52 52 53 53 53 54 56 58 59 60 60 62 64 64 62 63 65 65 65 66 64 62 61 62 61 61 62 64 65 65 64 62 61 60 58 57 56 55 56 57 58 59 60 62 64 65 67 67 65 62 61 60 61 61 60 59 59 58 58
53 54 54 54 54 53 53 53 52 51 50 49 49 49 49 48 49 50 50 50 51 53 55 56 58 58 59 60 61 59 58 60 62 62 63 63 63 62 61 59 56 57 60 62 63 64 63 62 61 58 56 55 54 54 56 57 59 60 61 62 63 63 63 62 61 60 59 59 59 60 59 59 58 58
52 53 53 53 52 52 51 50 48 47 47 46 46 45 44 44 44 45 46 46 47 49 51 53 55 56 56 57 58 57 56 57 60 59 57 58 60 61 60 57 53 52 54 57 59 61 61 62 62 60 57 55 53 53 54 55 57 58 59 60 61 61 60 60 60 59 58 57 58 59 59 59 58 58
51 51 50 49 48 47 46 46 44 43 42 41 42 41 39 38 40 41 42 43 44 46 48 50 51 53 54 55 55 55 54 55 57 56 52 49 50 54 56 56 55 53 51 53 57 59 59 60 61 61 59 56 53 52 52 53 54 56 56 58 59 59 59 59 58 58 57 57 57 57 58 58 58 58
51 49 48 46 44 41 40 40 38 37 36 36 36 36 34 34 36 37 39 41 42 44 46 48 48 49 52 53 52 52 52 52 53 53 50 44 39 40 46 51 52 51 49 49 53 56 58 58 60 61 59 55 52 50 50 50 50 52 54 55 56 57 58 57 57 57 56 56 56 56 56 57 57 57
50 48 46 43 41 37 35 34 33 32 32 31 30 30 30 32 34 36 39 40 41 42 44 45 45 47 50 51 50 50 50 49 50 51 52 47 37 33 39 44 44 44 46 48 50 52 54 56 58 59 57 53 49 48 47 46 47 49 51 53 54 55 56 56 56 56 56 55 55 55 55 56 56 56
48 47 45 42 40 36 31 30 29 28 27 26 26 28 30 32 34 36 38 40 41 42 43 44 45 47 49 50 51 50 48 47 48 50 51 50 43 38 38 41 40 39 42 46 47 49 51 54 56 55 52 48 46 45 45 44 44 46 48 50 52 53 53 54 55 55 55 54 54 54 54 54 55 55
46 46 44 43 42 37 32 28 26 25 25 25 27 29 31 32 33 33 35 37 39 41 43 47 48 48 48 50 51 50 47 46 46 49 51 50 47 42 39 39 39 37 38 42 44 46 47 50 52 51 48 46 44 43 43 42 42 44 46 48 50 51 51 53 53 54 54 53 53 53 53 53 53 54
44 44 43 43 42 38 32 27 24 24 25 26 28 30 32 34 34 33 34 35 36 39 42 46 49 49 49 51 51 49 47 46 45 47 49 49 48 45 39 36 38 39 41 44 46 46 46 46 47 48 49 48 45 42 41 39 41 44 45 47 49 49 50 51 52 53 53 52 52 52 52 52 52 53
41 41 42 42 41 39 33 26 23 24 27 29 31 32 34 35 36 37 37 37 38 39 41 44 46 46 47 48 49 48 48 48 45 44 46 48 48 47 40 35 38 42 44 45 45 45 45 45 46 47 50 50 46 42 40 38 39 42 44 45 47 47 48 49 49 50 51 51 50 50 50 50 51 51
38 39 40 41 40 39 34 28 25 27 29 31 33 35 37 38 39 41 41 41 42 42 43 44 44 44 43 44 45 45 45 47 44 41 44 48 49 48 41 35 36 41 43 43 43 43 43 45 48 51 52 49 43 39 37 36 37 40 42 43 44 45 45 46 46 47 48 48 48 47 47 48 49 49
38 38 39 39 39 38 35 31 29 29 30 32 35 39 41 42 44 46 45 45 45 43 43 44 44 43 42 42 42 41 41 43 41 39 43 48 50 49 42 34 35 39 41 42 43 44 44 45 48 50 49 45 40 36 35 35 36 39 40 40 41 42 43 43 43 44 45 45 45 45 45 46 47 47
38 38 38 38 38 38 36 33 32 32 32 35 38 41 42 43 46 48 47 47 44 41 39 40 41 41 41 41 43 43 43 41 38 39 42 45 50 51 44 35 34 37 40 42 43 45 45 43 43 44 42 39 36 34 35 36 35 37 38 38 38 39 40 40 40 41 42 42 42 43 43 44 45 46
38 38 37 36 36 36 35 34 35 35 35 38 40 40 42 44 46 45 44 44 42 39 38 38 37 38 39 40 43 47 48 44 40 41 42 42 48 54 48 38 33 33 38 43 45 46 46 44 43 41 38 35 33 32 34 35 34 34 35 35 35 36 37 38 38 38 38 39 40 41 42 43 44 45
39 38 38 36 35 34 35 35 36 37 38 38 37 37 41 45 44 41 40 41 40 39 39 37 35 35 36 39 43 47 50 48 45 45 44 42 47 54 51 40 34 33 37 42 44 45 43 41 40 38 34 32 32 31 32 33 32 31 32 33 34 34 34 35 35 35 36 37 38 39 40 41 42 42
40 40 39 38 36 35 35 35 35 36 36 35 34 36 40 41 39 39 40 40 38 38 37 34 32 30 30 32 38 42 45 45 44 45 46 44 47 52 51 43 36 35 38 41 43 42 39 38 36 34 32 33 33 30 29 31 30 28 29 32 32 31 32 33 34 34 35 36 37 38 38 39 40 41
40 40 40 39 37 37 36 35 34 34 34 34 34 35 34 33 34 37 40 40 38 36 33 29 26 23 21 21 25 30 34 37 39 42 45 46 48 52 49 42 37 37 37 38 39 39 38 36 34 34 34 34 32 29 28 30 29 27 28 30 30 30 32 33 34 34 34 35 35 36 36 37 38 39
37 36 36 35 34 33 32 31 32 32 31 31 30 27 26 28 30 32 33 34 34 31 27 23 21 18 14 13 14 16 20 25 30 36 42 46 49 49 44 37 35 35 34 35 36 37 36 35 34 34 33 32 30 29 28 29 28 26 27 28 28 30 32 33 33 33 33 33 33 33 34 36 36 37
31 30 29 28 28 28 28 28 29 28 25 24 24 22 23 25 25 23 21 21 20 20 19 19 17 13 10 9 9 9 12 16 21 29 39 46 48 43 36 32 31 32 32 33 35 36 35 34 33 33 32 30 30 28 27 28 27 26 25 26 28 30 31 32 32 31 30 30 31 32 33 33 34 34
22 22 23 24 25 24 22 19 18 17 15 15 16 17 18 19 19 19 18 16 14 13 14 15 12 8 5 5 6 6 8 12 18 27 38 46 44 35 29 29 30 31 33 35 36 34 33 33 32 32 31 30 28 26 26 28 27 26 25 26 27 28 29 29 29 28 27 28 29 29 29 30 30 31
17 18 20 20 18 14 13 13 12 11 11 11 11 13 15 17 19 21 22 22 19 14 11 11 10 8 5 4 4 3 6 10 15 23 35 44 42 34 31 32 32 34 36 37 36 33 32 32 32 31 30 28 26 26 27 27 26 26 26 25 25 26 26 26 25 25 25 25 24 25 26 27 27 28
16 15 13 11 10 11 13 14 12 12 12 13 13 13 14 14 16 18 21 23 22 17 12 9 9 9 8 4 4 6 9 11 13 18 28 37 39 36 35 35 36 37 37 36 34 32 32 32 31 29 28 26 24 26 27 26 25 26 25 24 24 23 23 23 23 23 22 21 21 22 24 25 26 27
13 10 7 8 12 14 14 13 12 13 14 13 13 12 11 10 11 12 12 12 13 13 12 9 8 10 10 5 3 7 13 15 15 17 22 28 31 32 34 36 37 37 35 33 32 32 32 30 29 28 26 24 25 26 27 26 26 26 24 22 23 22 21 22 23 23 22 21 20 20 22 23 24 26
10 6 7 11 13 13 12 11 11 11 10 10 10 10 9 8 8 8 7 3 3 7 8 7 7 9 9 6 5 10 15 16 16 17 20 23 26 30 33 34 34 32 31 31 32 31 30 28 28 27 26 25 26 26 26 25 25 24 23 23 23 24 23 21 22 22 22 21 20 19 19 21 23 24
9 6 9 12 12 11 10 9 9 8 7 8 10 10 7 5 8 11 9 6 2 2 5 6 7 9 10 9 9 11 14 16 16 17 18 21 24 27 28 28 29 28 29 30 31 30 29 29 29 27 26 26 26 25 25 25 24 24 25 25 24 23 22 20 20 20 20 20 19 19 19 20 21 20
8 7 9 10 10 10 10 9 9 8 8 8 9 9 6 4 6 9 10 8 7 5 1 2 5 8 10 11 12 13 14 15 15 15 16 18 20 22 23 25 26 27 28 29 29 29 30 29 26 25 26 26 25 24 24 24 25 25 27 26 24 23 23 22 20 20 19 18 18 17 18 18 17 16
9 8 9 9 9 9 10 10 10 9 10 10 9 8 7 4 4 5 6 6 7 6 5 3 0 3 7 11 13 16 17 17 16 15 15 16 18 20 22 24 25 26 27 27 29 29 28 25 24 25 26 25 24 23 24 24 25 26 28 29 25 24 24 23 21 19 18 17 17 16 15 15 14 15
10 10 10 10 9 10 11 11 11 11 11 11 10 9 7 4 2 3 3 3 3 2 3 4 5 4 4 7 12 15 18 20 19 18 17 17 17 19 20 21 23 25 26 27 29 27 24 22 24 25 25 24 23 24 25 26 26 25 28 29 27 24 22 21 19 18 17 16 15 14 13 13 13 14
12 11 11 11 11 11 12 12 13 13 12 12 11 9 7 5 4 3 2 2 3 3 4 5 7 8 8 8 11 15 18 20 21 21 20 20 20 20 19 20 21 22 24 27 27 24 22 23 25 25 24 24 24 26 28 29 28 26 27 27 25 22 20 19 19 18 16 15 14 13 13 12 11 11
15 13 12 12 12 12 13 13 14 15 14 13 11 8 7 7 6 4 4 4 4 5 5 5 6 8 10 10 12 15 19 22 22 22 23 23 22 20 19 18 19 21 22 24 23 22 23 25 25 24 24 24 26 27 28 27 26 26 25 24 22 19 18 18 18 17 15 14 13 13 12 11 10 9
16 16 14 13 13 13 13 14 14 15 14 13 11 9 7 8 7 6 5 4 4 5 5 5 5 7 8 9 10 13 17 20 22 22 22 23 22 19 17 18 19 20 20 20 21 23 24 24 23 23 24 25 26 27 27 26 27 26 23 22 21 20 19 18 16 13 12 12 11 11 10 10 9 8
15 16 16 15 14 13 13 13 13 13 13 12 11 10 9 9 8 8 8 6 5 4 5 4 4 5 5 6 8 9 11 15 18 19 20 21 20 17 15 17 19 19 19 19 21 22 22 21 22 25 26 27 27 27 28 29 29 26 23 23 22 21 19 17 14 12 12 11 10 9 8 8 8 7
15 14 15 15 15 14 13 13 12 12 12 12 12 11 9 8 8 8 9 8 6 5 5 5 4 4 4 5 5 4 6 10 15 19 21 22 19 15 13 15 17 19 19 19 20 21 20 21 26 30 30 28 28 28 28 29 28 24 23 24 23 20 18 16 14 13 12 11 9 8 7 6 6 6
15 14 14 14 15 15 15 14 13 12 12 12 11 10 7 6 5 7 8 8 6 5 4 4 5 4 3 3 2 1 4 8 13 18 20 20 18 14 13 14 16 18 18 18 19 20 20 23 29 33 31 28 29 29 29 29 26 24 24 24 22 19 18 17 14 12 12 10 8 7 6 5 5 4
16 15 14 13 12 13 14 14 13 11 10 11 9 6 6 5 4 3 6 7 4 3 3 3 3 2 3 3 3 5 6 7 11 15 17 17 18 16 15 14 15 16 16 16 17 19 20 24 31 34 32 28 29 30 30 29 26 24 23 23 21 20 19 16 13 11 10 9 7 6 5 5 5 4
16 15 13 12 10 9 10 12 11 9 9 9 6 4 5 4 2 5 7 5 2 2 2 0 2 6 9 10 9 10 10 7 7 13 16 17 18 17 15 14 15 15 14 14 15 17 20 25 32 35 32 28 28 30 30 27 25 25 24 23 22 20 19 17 13 10 9 9 7 6 5 5 4 3
Wind_Direction
277 276 275 274 273 273 272 270 269 268 268 267 267 266 266 266 267 267 267 266 265 265 264 264 264 263 263 263 262 261 261 261 262 263 264 264 263 262 261 260 259 257 255 254 256 257 256 256 256 257 258 258 258 258 257 257 258 258 257 256 256 256 256 256 257 257 258 258 257 256 255 255 254 253
278 277 275 274 273 272 272 271 270 270 269 268 267 267 266 265 266 266 267 266 265 265 265 264 263 263 261 261 261 260 259 259 259 260 261 262 262 262 262 261 259 258 256 254 253 254 255 255 254 254 255 256 256 257 257 257 256 257 257 256 256 255 254 254 255 256 256 256 256 255 255 255 255 254
280 279 278 277 275 274 272 271 270 270 269 269 268 268 267 266 266 266 267 267 266 265 265 265 264 263 262 261 260 260 258 257 257 258 259 260 260 261 261 261 260 258 256 254 253 253 254 254 253 252 253 253 252 252 254 255 255 254 255 255 256 256 255 254 253 253 254 255 254 254 253 254 255 254
281 280 279 278 277 276 275 274 273 272 270 269 269 269 268 267 266 265 266 266 265 264 264 264 263 263 263 261 260 260 259 257 255 255 256 258 259 259 260 260 260 258 257 254 251 251 252 252 252 252 251 251 250 248 249 251 252 252 252 252 255 256 256 255 254 253 252 252 253 253 253 253 253 254
282 281 280 279 278 278 277 276 275 275 273 272 270 269 268 267 267 266 265 266 266 264 263 263 263 262 262 262 261 260 259 258 256 254 253 254 256 256 257 258 259 258 257 254 251 249 250 250 251 251 251 250 248 246 246 247 248 248 249 249 251 253 254 254 255 254 253 252 252 252 252 251 252 252
283 282 280 280 279 279 279 278 277 277 276 275 274 272 270 269 267 266 266 266 267 266 264 263 263 261 261 261 261 260 260 259 258 256 252 250 251 253 254 255 257 257 256 255 252 249 248 249 249 250 250 249 248 246 246 246 245 245 246 247 248 250 251 252 253 253 253 253 252 252 251 251 251 251
283 282 281 280 280 279 279 278 278 277 277 276 276 275 273 272 270 267 266 266 266 266 265 264 263 262 261 260 260 259 259 259 258 257 255 251 248 249 251 253 254 255 255 254 252 249 248 248 248 249 249 249 248 246 244 243 243 243 243 244 245 247 249 250 251 252 254 255 255 254 252 251 251 251
283 283 283 282 281 280 279 278 277 276 276 275 275 275 274 273 272 270 268 267 267 267 266 265 264 263 262 261 260 259 259 258 257 257 257 254 250 247 247 250 252 254 255 254 253 250 248 248 249 249 249 248 248 246 244 241 241 243 243 243 245 247 249 251 252 254 255 256 257 256 255 253 251 251
285 285 284 283 282 281 279 279 278 277 277 276 276 275 275 274 274 272 271 270 269 269 268 266 265 264 263 263 261 260 260 260 258 256 256 256 254 251 247 247 249 252 254 254 252 250 247 247 248 249 249 248 247 247 245 243 241 242 243 245 246 248 251 253 254 255 255 255 256 256 255 254 252 251
285 285 284 283 282 281 281 281 280 279 278 278 277 276 275 275 274 273 272 271 271 270 269 268 267 265 264 264 262 260 260 260 259 257 256 255 255 254 251 248 247 248 251 252 252 251 248 246 247 248 248 248 247 246 246 245 242 242 243 246 248 249 252 254 255 254 254 253 254 254 255 254 253 252
285 284 283 282 282 281 281 280 280 280 279 278 277 276 276 276 275 275 275 274 273 272 271 270 268 266 265 264 264 262 260 259 259 258 256 255 253 252 252 251 248 246 248 251 252 251 249 247 247 248 248 247 246 245 245 245 244 243 243 245 248 250 252 253 254 254 253 253 253 254 254 254 253 252
284 284 283 283 282 282 281 280 280 279 278 277 276 276 276 277 276 276 276 275 275 274 273 272 271 269 267 264 264 262 260 258 258 257 257 256 254 252 251 250 248 245 245 248 250 251 250 249 247 247 248 247 244 244 244 245 246 246 246 247 248 250 251 252 253 254 254 253 252 252 253 253 253 252
284 283 282 282 281 281 280 280 279 278 277 277 276 276 276 276 276 276 275 275 275 274 274 273 273 272 269 266 265 263 260 258 258 257 256 256 257 255 252 248 246 245 247 250 250 250 250 249 248 248 248 247 245 244 244 245 246 248 248 248 249 250 250 251 251 252 252 251 250 250 251 252 252 252
287 286 285 284 283 282 281 279 277 275 274 273 273 275 275 275 275 276 275 275 275 275 275 274 274 273 270 267 265 263 261 258 256 255 252 251 253 255 253 250 246 244 246 249 250 250 249 249 249 249 248 247 246 245 244 245 247 248 249 249 250 250 250 250 250 250 250 250 250 249 249 250 250 251
289 289 289 288 287 286 284 280 276 273 270 269 269 272 274 276 278 279 279 279 279 279 279 278 277 275 272 269 266 263 260 257 254 252 249 245 243 245 249 249 246 239 237 241 247 249 249 249 250 250 249 248 247 245 244 245 246 247 248 249 249 249 249 249 249 249 249 249 249 248 247 248 248 249
291 291 291 291 290 288 286 280 273 268 264 263 266 269 273 276 278 280 281 283 283 283 283 282 280 277 276 273 268 264 260 256 252 250 248 242 236 236 241 245 244 237 233 239 246 249 249 249 249 251 251 249 245 242 241 242 244 246 248 249 249 248 248 249 249 249 249 248 248 247 246 246 247 247
290 291 292 292 292 292 290 281 269 264 264 265 269 272 275 277 278 278 278 279 281 282 282 282 281 280 279 277 273 269 265 259 252 247 246 240 233 232 236 239 240 234 227 234 242 245 247 249 250 251 250 245 240 239 240 240 241 244 246 248 249 248 248 249 249 249 248 248 247 247 246 246 245 246
288 289 290 291 291 292 290 280 269 270 275 278 280 282 284 286 286 285 283 280 279 279 278 279 280 280 280 279 278 275 270 264 255 247 245 239 230 228 232 236 238 231 223 228 237 241 244 248 250 251 249 244 239 239 243 243 240 241 245 247 249 248 248 248 248 248 248 247 246 246 246 245 245 245
288 288 289 290 291 292 288 277 269 276 283 287 289 290 291 292 291 288 286 284 282 280 277 276 277 278 280 282 281 278 273 267 258 249 244 238 228 224 226 231 233 228 222 226 235 241 243 244 245 248 250 248 244 242 244 244 241 242 245 247 249 249 248 247 247 247 247 246 245 245 245 244 244 244
289 288 288 289 290 291 287 277 271 277 284 288 293 294 292 292 291 288 287 286 284 282 280 280 280 279 280 282 282 280 275 270 262 251 242 235 225 219 221 225 228 226 222 224 232 239 242 241 240 242 247 250 250 247 245 244 243 243 245 247 250 250 248 247 247 246 246 246 245 245 244 243 243 243
292 291 290 290 290 289 286 279 274 277 283 287 290 291 291 291 291 291 291 289 285 281 279 278 278 278 279 279 277 274 269 266 264 255 242 231 221 216 217 221 224 223 221 224 228 233 237 239 240 242 245 246 246 247 247 246 244 245 245 247 248 249 248 247 246 245 245 245 245 244 243 242 242 242
294 293 293 292 291 290 286 280 277 279 283 285 286 286 288 290 290 290 290 290 287 284 279 276 274 273 273 271 266 261 256 256 257 254 245 231 219 214 214 217 221 222 222 224 226 230 234 238 242 244 243 241 239 242 247 247 246 247 248 248 247 246 246 245 244 243 243 243 243 242 241 240 240 240
295 295 296 295 293 292 290 284 280 279 281 282 283 284 286 286 286 287 286 285 287 286 283 280 276 271 268 265 259 253 248 243 240 241 241 230 218 214 212 213 219 224 225 224 224 228 232 237 242 244 241 237 236 239 245 248 248 249 249 247 243 242 243 243 242 241 241 241 240 240 239 238 238 239
296 297 298 298 298 296 292 286 282 281 280 281 280 279 279 280 282 285 284 281 283 285 285 285 281 274 267 261 254 249 246 239 230 229 230 224 215 212 211 211 215 222 227 225 223 227 234 241 245 245 240 237 237 238 243 248 250 249 246 242 239 238 239 240 239 239 238 238 237 237 237 237 238 238
297 300 302 304 304 302 297 293 290 286 284 281 277 273 274 277 282 286 284 280 280 283 285 284 279 273 266 256 249 248 246 240 230 225 221 215 209 207 207 209 213 219 225 226 225 230 239 246 245 240 236 237 238 240 243 249 249 245 240 238 236 234 235 236 236 236 236 235 235 235 235 235 236 237
299 303 306 307 306 305 303 300 295 290 286 282 276 271 273 279 282 283 282 279 278 279 280 277 272 270 267 258 252 251 248 241 231 221 215 209 204 202 203 206 211 217 221 225 229 237 243 244 237 231 232 236 240 244 248 250 247 239 233 234 232 230 232 233 233 233 233 233 233 232 233 233 234 235
300 303 303 303 304 304 303 299 295 292 287 280 276 273 275 279 280 279 280 279 274 272 270 267 268 269 266 264 264 259 251 242 229 217 211 206 199 197 199 204 211 218 223 229 236 240 241 236 229 227 230 235 240 245 247 248 244 235 229 230 229 228 230 230 230 230 230 230 231 231 231 232 232 233
299 302 303 305 307 307 304 301 299 297 291 281 276 272 269 270 272 273 278 279 273 266 260 260 268 270 258 256 266 263 255 245 230 216 209 202 195 194 200 207 215 223 229 234 240 240 237 231 226 226 230 235 241 244 244 242 240 233 228 226 226 226 228 228 228 227 227 227 228 229 230 230 231 232
304 308 309 310 309 308 309 311 313 314 309 294 283 275 266 265 267 268 269 268 265 264 264 264 266 261 250 268 279 255 236 233 226 215 205 197 192 194 202 210 219 227 232 238 242 241 233 227 225 228 233 237 242 243 238 235 234 232 228 225 223 223 224 225 226 224 222 223 225 226 227 228 229 230
314 314 310 308 310 320 333 338 337 335 329 314 299 291 283 278 279 278 274 268 262 260 266 269 264 254 256 309 317 253 205 200 205 204 198 194 194 199 206 212 221 229 232 237 239 234 228 225 227 232 236 240 241 237 232 230 230 230 228 223 218 218 218 219 219 218 217 218 220 222 223 225 226 227
322 316 310 316 339 356 352 339 330 325 323 320 318 315 306 297 293 293 286 274 263 256 251 253 260 258 254 281 310 262 219 196 191 193 194 196 200 206 212 218 224 229 231 233 232 227 225 226 230 234 239 239 234 228 226 226 224 223 224 220 214 210 209 209 209 208 209 210 213 216 219 220 222 224
323 317 330 1 4 355 339 326 322 322 323 325 328 329 326 323 319 314 303 282 257 240 232 229 238 246 242 244 271 241 217 204 200 199 199 203 208 212 216 222 227 229 229 228 226 224 225 228 232 236 238 233 225 222 222 221 217 216 216 213 205 198 198 202 203 201 202 205 209 213 216 217 219 221
319 321 359 11 3 347 334 328 329 331 332 335 340 340 336 341 356 5 1 337 226 208 212 216 221 225 224 217 219 217 211 208 210 210 210 213 216 219 222 226 229 228 225 225 225 225 226 230 235 235 231 224 220 218 216 213 213 211 206 200 194 191 193 199 199 197 199 204 207 209 213 216 219 221
320 331 358 2 354 344 341 342 342 343 344 348 355 359 354 359 24 35 36 34 41 205 217 220 218 216 211 204 201 205 209 211 212 211 211 214 218 222 225 226 224 221 220 223 226 227 228 231 232 229 222 218 216 213 209 207 207 205 197 189 187 190 194 194 192 191 195 202 204 205 210 216 219 222
321 334 345 346 341 336 338 345 350 350 349 354 3 11 13 19 33 37 39 43 42 35 27 211 215 219 218 211 203 200 205 210 210 208 208 209 211 215 218 220 219 219 221 225 228 230 229 228 224 217 214 213 210 208 206 202 199 196 189 181 184 193 196 192 187 186 191 198 201 204 211 217 220 223
320 332 331 326 325 323 324 333 343 346 347 349 352 1 12 31 54 48 40 41 38 32 33 42 66 218 219 220 216 213 213 216 219 220 217 213 211 213 217 220 222 223 223 225 229 229 224 217 210 206 207 207 205 204 200 193 188 186 182 180 186 194 192 187 183 184 189 197 200 202 210 215 216 220
313 319 316 310 310 311 313 320 327 333 338 338 336 338 351 11 40 47 40 39 31 5 338 335 335 320 270 238 229 225 224 225 227 228 227 224 222 223 223 224 225 224 220 219 220 219 211 201 199 200 200 200 199 196 188 181 178 179 181 184 187 185 179 178 183 186 191 197 200 202 209 212 213 218
305 304 303 298 296 298 303 310 317 321 324 326 326 322 320 322 327 330 329 330 330 316 306 311 318 317 303 269 243 233 230 229 229 229 229 231 231 230 229 228 224 220 216 211 208 203 196 193 195 195 193 193 191 186 180 177 176 178 181 183 180 172 170 178 186 188 191 197 200 203 209 211 212 217
301 294 291 289 286 287 292 298 305 310 313 314 314 308 297 292 292 288 285 292 302 308 313 316 317 316 308 288 261 242 234 231 231 230 229 232 233 231 230 229 222 215 210 204 197 191 190 193 193 190 187 185 181 177 175 176 175 173 174 174 170 168 175 185 187 189 193 196 199 203 208 209 211 216
300 291 284 282 282 283 286 291 296 301 305 306 305 299 284 272 265 258 253 259 280 296 303 308 316 317 310 295 276 256 239 230 226 224 224 226 228 226 225 224 216 207 201 195 188 186 190 192 189 183 179 175 172 170 169 170 168 167 169 172 172 175 181 183 182 185 190 191 192 198 203 206 210 217
304 292 282 278 278 279 281 285 289 293 298 300 300 296 282 263 253 247 240 236 247 267 278 295 320 328 321 307 291 271 242 222 213 210 210 215 219 216 214 215 208 199 193 189 183 183 188 187 180 174 172 171 169 169 170 168 165 165 171 176 177 177 179 176 173 176 179 178 180 183 186 190 196 202
317 303 289 277 271 270 273 277 281 290 296 299 300 298 285 264 252 246 235 225 225 243 264 290 317 330 334 327 307 272 224 205 199 197 199 204 207 204 200 201 197 190 186 181 175 176 183 184 175 170 170 172 171 171 172 170 166 167 175 179 177 175 175 173 172 176 176 173 173 173 172 174 181 189
331 321 308 290 273 265 265 269 275 285 294 299 300 293 272 257 262 252 228 212 213 237 264 292 306 316 338 333 297 194 159 178 190 196 200 202 199 195 193 189 182 179 178 175 173 177 184 182 174 169 170 174 174 172 172 171 170 172 178 178 175 175 176 174 174 177 177 174 169 163 161 164 165 170
340 332 324 312 289 269 261 263 271 280 290 298 298 275 245 258 280 237 195 189 202 244 274 296 307 346 59 77 102 108 109 140 175 189 195 195 191 191 192 180 168 167 171 175 180 185 186 180 173 171 172 176 176 173 172 173 174 177 179 179 178 179 179 177 175 176 178 173 160 149 151 156 152 150
347 341 333 327 314 285 263 260 265 275 290 299 290 248 244 270 245 167 167 172 195 256 282 351 90 90 88 88 89 87 83 94 151 175 180 180 181 183 179 165 155 156 162 169 179 185 182 176 173 173 174 177 178 175 174 175 177 179 181 182 184 186 185 182 180 182 180 170 159 152 153 157 159 160